Regional Weather Roundup
Issued by NWS Charleston, SC

Current Version | Previous Version | Graphics & Text | Print | Product List | Glossary On
Versions: 1 2 3 4 5 6 7 8 9 10 11 12 13 14 15 16 17 18 19 20 21 22 23 24 25 26 27 28 29 30 31 32 33 34 35 36 37 38 39 40 41 42 43 44 45 46 47 48 49 50
000 ASUS42 KCHS 021211 RWRCHS REGIONAL WEATHER ROUNDUP NATIONAL WEATHER SERVICE CHARLESTON SC 700 AM EST MON MAR 02 2015 NOTE: "FAIR" INDICATES FEW OR NO CLOUDS BELOW 12,000 FEET WITH NO SIGNIFICANT WEATHER AND/OR OBSTRUCTIONS TO VISIBILITY. NOT ALL STATIONS ARE QUALITY CONTROLLED BY THE NATIONAL WEATHER SERVICE. USE DATA WITH CAUTION...ESPECIALLY DEWPOINT OBSERVATIONS. SCZ027-030-031-034>040-042>050-021300- ...SOUTHEAST SOUTH CAROLINA... CITY SKY/WX TMP DP RH WIND PRES REMARKS N CHARLESTON FOG 45 45 100 S5 30.28F VSB 1/8 6HR MIN TEMP: 43; 6HR MAX TEMP: 45; WATERFRONT PRK N/A 45 N/A N/A W3 N/A MOUNT PLEASANT FOG 46 46 100 SW5 30.29S VSB 1/2 PINOPOLIS N/A 46 46 100 SW6 30.19S MONCKS CORNER CLOUDY 46 45 93 SW7 30.27F FOG SUMMERVILLE CLOUDY 45 45 100 SW3 30.29F FOG BEAUFORT MCAS FOG 47 47 100 S6 30.29F VSB 3/4 6HR MIN TEMP: 45; 6HR MAX TEMP: 47; BEAUFORT ARPT FOG 46 46 100 CALM 30.30S VSB 1/2 HILTON HEAD IS CLOUDY 48 48 100 W5 30.33 FOG WALTERBORO CLOUDY 46 46 100 S3 30.29F FOG ALLENDALE FOG 46 46 100 CALM 30.28S VSB 1/4 ...SOUTHERN MIDLANDS AND PEE DEE... CITY SKY/WX TMP DP RH WIND PRES REMARKS GEORGETOWN NOT AVBL KINGSTREE NOT AVBL ORANGEBURG FOG 46 44 93 SW6 30.27F VSB 1/4 6HR MIN TEMP: 43; 6HR MAX TEMP: 46; BARNWELL FOG 46 46 100 CALM 30.28F VSB 3/4 AIKEN FOG 45 45 100 W8 30.29S VSB 1/4 MANNING FOG N/A N/A N/A SW5 30.28R VSB 1/2 COLUMBIA FOG 47 46 97 SW5 30.25S VSB 1/4 6HR MIN TEMP: 43; 6HR MAX TEMP: 47; SUMTER FOG 45 45 100 SW5 30.24S VSB 1/4 FLORENCE FOG 44 43 96 W7 30.25F VSB 1/4 6HR MIN TEMP: 41; 6HR MAX TEMP: 44; MYRTLE BEACH FOG 45 43 93 SW6 30.27S VSB 1/2 N MYRTLE BEACH CLOUDY 45 44 97 SW6 30.24F FOG 6HR MIN TEMP: 43; 6HR MAX TEMP: 45; $$ GAZ063-065-086>088-099>101-113>116-118-119-134>141-150-021300- ...SOUTHEAST GEORGIA... CITY SKY/WX TMP DP RH WIND PRES REMARKS SAVANNAH ARPT FOG 47 46 97 S5 30.31R VSB 3/4 6HR MIN TEMP: 46; 6HR MAX TEMP: 47; HUNTER AAF FOG 48 48 100 CALM 30.29R VSB 1/2 6HR MIN TEMP: 47; 6HR MAX TEMP: 48; FORT STEWART FOG 48 48 100 SE6 30.27F VSB 1/2 6HR MIN TEMP: 47; 6HR MAX TEMP: 49; 6HR PCP: 0.01; STATESBORO CLOUDY 47 47 100 CALM 30.29S FOG SYLVANIA FOG 46 46 100 CALM 30.30S VSB 1/2 CLAXTON CLOUDY 46 46 100 CALM 30.29F FOG ...CSRA...CENTRAL AND FAR SOUTHEAST GEORGIA... CITY SKY/WX TMP DP RH WIND PRES REMARKS THOMSON CLOUDY 47 47 100 CALM 30.32S VSB 1/2 AUGUSTA-BUSH FOG 45 44 97 CALM 30.28F VSB 1/2 6HR MIN TEMP: 43; 6HR MAX TEMP: 45; AUGUSTA-DANIEL FOG 47 46 97 CALM 30.28R VSB 1/4 SWAINSBORO FOG 46 46 100 CALM 30.30S VSB 1/2 VIDALIA FOG 48 48 100 CALM 30.30R VSB 1/4 EASTMAN FOG 47 47 100 CALM 30.33S VSB 3/4 HAZLEHURST CLOUDY 50 50 100 CALM 30.29S FOG ALMA FOG 50 50 100 N3 30.31R VSB 1/2 6HR MIN TEMP: 49; 6HR MAX TEMP: 50; WAYCROSS FOG 55 55 100 CALM 30.30R VSB 1/2 JESUP FOG 54 52 94 SE3 30.30S VSB 1/2 BAXLEY FOG 52 52 100 CALM 30.30R VSB 1/2 BRUNSWICK CLOUDY 52 52 100 CALM 30.31R VSB 1/4 SAINT SIMONS FOG 50 50 100 CALM 30.31R VSB 1/4 6HR MIN TEMP: 50; 6HR MAX TEMP: 52; $$ SCZ027-028-034-036>038-045-046-048>050-GAZ119-141-021300- ...LAKE AND SUPPLEMENTAL COASTAL OBSERVATIONS... STATION/POSITION TIME TEMP WIND PRES WAVE SWELL AIR SEA DIR/SP/G HT/PER HT/PER/DIR (UTC) (F) (DEG/KT/KT) (MB) (FT/S) (FT/S/D) UPR LAKE MARION NOT AVBL WINYAH BAY 1045 44 250/ 4 1024.0 LAKE MURRAY 1100 45 240/ 2/ 5 1024.0R ACE BASIN NERRS NOT AVBL FORT PULASKI 1106 48 48 200/ 3/ 4 1026.4R SAPELO ISLAND 1100 51 CALM 1026.0S $$ ANZ835-935-AMZ111-154-330-350-352-354-370-450-454-472-021300- ...C-MAN AND BUOY OBSERVATIONS... STATION/POSITION TIME TEMP WIND PRES WAVE SWELL AIR SEA DIR/SP/G HT/PER HT/PER/DIR (UTC) (F) (DEG/KT/KT) (MB) (FT/S) (FT/S/D) BUOY 41004 1150 60 68 260/ 12/ 14 1024.7R 4/ 8 3/ 8 BUOY 41008 1150 51 55 60/ 2/ 4 1025.8F 4/10 3/ 90/10 FOLLY BEACH CMAN 1200 46 250/ 4/ 6 1026.1R CAPERS NEARSHORE NOT AVBL FRIPP NEARSHORE 1100 47 240/ 4/ 4 1024.6F STATION/POSITION TIME TEMP WIND PRES WAVE SWELL AIR SEA DIR/SP/G HT/PER HT/PER/DIR (UTC) (F) (DEG/KT/KT) (MB) (FT/S) (FT/S/D) 5E ST. MARYS GA 1121 52 N/A 4/10 2/ 90/11 FRYING PAN BUOY 1150 57 62 260/ 12/ 14 1024.5R 4/ 8 3/120/ 8 BUOY 41025 NOT AVBL CAPE LOOKOUT NC 1100 45 250/ 9/ 12 1023.0S BUOY 41002 1150 71 72 220/ 16/ 17 1025.0F 6/ 9 3/100/ 9 BUOY 41010 1120 73 75 190/ 6/ 6 1025.9R ST AUGUSTINE FL 1200 52 360/ 7/ 7 1027.1F $$

USA.gov is the U.S. government's official web portal to all federal, state and local government web resources and services.